TimeEDT,TemperatureF,Dew PointF,Humidity,Sea Level PressureIn,VisibilityMPH,Wind Direction,Wind SpeedMPH,Gust SpeedMPH,PrecipitationIn,Events,Conditions,WindDirDegrees,DateUTC
12:51 AM,42.8,37.4,81,30.00,10.0,NW,6.9,-,N/A,,Overcast,320,2011-10-03 04:51:00
1:51 AM,42.1,37.9,85,30.01,10.0,NNW,4.6,-,0.00,,Overcast,330,2011-10-03 05:51:00
2:37 AM,42.8,37.4,81,30.01,10.0,NNW,8.1,-,N/A,,Overcast,340,2011-10-03 06:37:00
2:51 AM,43.0,37.9,82,30.03,10.0,NNW,10.4,-,N/A,,Overcast,330,2011-10-03 06:51:00
3:51 AM,42.1,37.0,82,30.04,10.0,NNW,9.2,-,N/A,,Overcast,330,2011-10-03 07:51:00
4:51 AM,42.1,36.0,79,30.05,10.0,WNW,6.9,-,N/A,,Overcast,300,2011-10-03 08:51:00
5:51 AM,42.1,36.0,79,30.07,10.0,WNW,5.8,-,N/A,,Unknown,290,2011-10-03 09:51:00
6:10 AM,42.8,35.6,76,30.06,10.0,WNW,8.1,-,N/A,,Overcast,300,2011-10-03 10:10:00
6:51 AM,42.1,36.0,79,30.11,10.0,WNW,5.8,-,N/A,,Overcast,300,2011-10-03 10:51:00
7:24 AM,41.0,35.6,81,30.08,10.0,NW,4.6,-,N/A,,Mostly Cloudy,310,2011-10-03 11:24:00
7:51 AM,41.0,37.4,87,30.08,10.0,Calm,Calm,-,N/A,,Mostly Cloudy,0,2011-10-03 11:51:00
8:51 AM,43.0,37.9,82,30.12,10.0,West,5.8,-,N/A,,Partly Cloudy,280,2011-10-03 12:51:00
9:04 AM,42.8,37.4,81,30.10,10.0,WNW,6.9,-,N/A,,Mostly Cloudy,290,2011-10-03 13:04:00
9:11 AM,42.8,37.4,81,30.11,10.0,WNW,6.9,-,N/A,,Mostly Cloudy,300,2011-10-03 13:11:00
9:32 AM,44.6,37.4,76,30.11,10.0,WNW,6.9,-,N/A,,Mostly Cloudy,290,2011-10-03 13:32:00
9:51 AM,44.6,37.4,76,30.12,10.0,WNW,5.8,-,N/A,,Overcast,290,2011-10-03 13:51:00
10:40 AM,46.4,39.2,76,30.12,10.0,West,9.2,-,N/A,,Partly Cloudy,280,2011-10-03 14:40:00
10:51 AM,46.9,37.9,71,30.15,10.0,West,5.8,-,N/A,,Scattered Clouds,280,2011-10-03 14:51:00
11:07 AM,46.4,37.4,71,30.13,10.0,West,10.4,17.3,N/A,,Mostly Cloudy,280,2011-10-03 15:07:00
11:51 AM,46.9,39.0,74,30.15,10.0,WNW,9.2,-,0.00,Rain,Light Rain,300,2011-10-03 15:51:00
12:20 PM,48.2,37.4,66,30.12,10.0,NW,8.1,-,0.00,,Mostly Cloudy,310,2011-10-03 16:20:00
12:51 PM,46.9,37.0,68,30.15,10.0,West,8.1,-,0.00,,Overcast,280,2011-10-03 16:51:00
1:51 PM,46.9,39.9,77,30.15,10.0,West,5.8,-,0.00,Rain,Light Rain,280,2011-10-03 17:51:00
2:51 PM,46.0,41.0,83,30.15,8.0,WNW,5.8,-,0.00,Rain,Light Rain,290,2011-10-03 18:51:00
3:34 PM,44.6,39.2,81,30.13,10.0,WNW,10.4,-,0.00,,Overcast,300,2011-10-03 19:34:00
3:51 PM,44.6,41.0,87,30.14,7.0,WNW,8.1,-,N/A,,Overcast,300,2011-10-03 19:51:00
4:47 PM,44.6,41.0,87,30.15,8.0,West,8.1,16.1,0.01,Rain,Light Rain,280,2011-10-03 20:47:00
4:51 PM,44.1,41.0,89,30.18,7.0,West,10.4,16.1,0.01,Rain,Light Rain,280,2011-10-03 20:51:00
5:11 PM,42.8,42.8,100,30.16,8.0,West,8.1,-,0.01,Rain,Light Rain,280,2011-10-03 21:11:00
5:51 PM,44.6,42.8,93,30.16,10.0,West,8.1,-,N/A,,Overcast,280,2011-10-03 21:51:00
6:18 PM,44.6,42.8,93,30.17,10.0,West,6.9,-,N/A,,Overcast,280,2011-10-03 22:18:00
6:31 PM,44.6,42.8,93,30.17,10.0,West,6.9,-,N/A,,Overcast,280,2011-10-03 22:31:00
6:51 PM,44.1,42.1,93,30.21,10.0,West,4.6,-,N/A,,Overcast,260,2011-10-03 22:51:00
7:04 PM,44.6,42.8,93,30.17,10.0,WSW,4.6,-,N/A,,Overcast,250,2011-10-03 23:04:00
7:51 PM,44.1,42.1,93,30.22,10.0,WSW,4.6,-,N/A,,Overcast,240,2011-10-03 23:51:00
8:51 PM,45.0,43.0,93,30.22,9.0,WSW,3.5,-,N/A,,Overcast,240,2011-10-04 00:51:00
9:51 PM,45.0,43.0,93,30.22,10.0,SW,3.5,-,N/A,,Overcast,230,2011-10-04 01:51:00
10:51 PM,45.0,43.0,93,30.21,10.0,WSW,5.8,-,N/A,,Overcast,240,2011-10-04 02:51:00
11:08 PM,44.6,42.8,93,30.19,10.0,WSW,4.6,-,N/A,,Overcast,240,2011-10-04 03:08:00
11:51 PM,45.0,43.0,93,30.22,10.0,WSW,4.6,-,N/A,,Overcast,240,2011-10-04 03:51:00